CW4592 Weather Reports


time (UTC)temp
C
wind
direction
speed
KPH
gust
KPH
rain 1hr
cm
rain 24hr
cm
rain mn
cm
humidity
%
barometer
mb
20260504174954 20 328 3.2 11.3 0.00 0.00 0.00 35 1005.5
20260504174454 20 336 3.2 11.3 0.00 0.00 0.00 34 1005.3
20260504173954 20 345 3.2 14.5 0.00 0.00 0.00 34 1005.4
20260504173455 20 348 3.2 14.5 0.00 0.00 0.00 34 1005.3
20260504172455 19 318 4.8 14.5 0.00 0.00 0.00 34 1005.4
20260504171954 19 316 6.4 14.5 0.00 0.00 0.00 34 1005.4
20260504171454 20 319 4.8 11.3 0.00 0.00 0.00 33 1005.4
20260504170954 20 322 3.2 11.3 0.00 0.00 0.00 34 1005.4
20260504170454 20 321 3.2 11.3 0.00 0.00 0.00 33 1005.3
20260504150954 18 318 3.2 12.9 0.00 0.00 0.00 52 1004.0
20260504140954 17 296 4.8 11.3 0.00 0.00 0.00 57 1003.3
20260504140454 17 286 6.4 11.3 0.00 0.00 0.00 57 1003.2
20260504130454 13 282 0.0 4.8 0.00 0.00 0.00 66 1002.7
20260504110454 8 0 0.0 0.0 0.00 0.00 0.00 75 1003.0
20260504081954 10 0 0.0 0.0 0.00 0.00 0.00 71 1004.0
20260504081454 10 0 0.0 0.0 0.00 0.00 0.00 70 1004.0
20260504080954 10 0 0.0 0.0 0.00 0.00 0.00 70 1004.0
20260504080453 10 98 0.0 1.6 0.00 0.00 0.00 70 1004.0
20260504050454 12 0 0.0 0.0 0.00 0.00 0.00 63 1006.2
20260504045953 12 0 0.0 0.0 0.00 0.00 0.00 63 1006.2
20260504045453 12 0 0.0 0.0 0.00 0.00 0.00 60 1006.2
20260504044954 12 0 0.0 0.0 0.00 0.00 0.00 59 1006.2
20260504044453 13 0 0.0 0.0 0.00 0.00 0.00 58 1006.3
20260504043953 13 0 0.0 0.0 0.00 0.00 0.00 56 1006.3
20260504043453 13 0 0.0 0.0 0.00 0.00 0.00 56 1006.3
20260504042453 13 0 0.0 0.0 0.00 0.00 0.00 56 1006.3
20260504041453 13 0 0.0 0.0 0.00 0.00 0.00 56 1006.6
20260504040454 13 0 0.0 0.0 0.00 0.00 0.00 56 1006.7
20260504035953 13 0 0.0 0.0 0.00 0.00 0.00 57 1006.7
20260504035453 13 0 0.0 0.0 0.00 0.00 0.00 58 1006.9
20260504034953 13 0 0.0 0.0 0.00 0.00 0.00 57 1006.9
20260504034453 13 0 0.0 0.0 0.00 0.00 0.00 57 1006.9
20260504033953 13 0 0.0 0.0 0.00 0.00 0.00 56 1007.0
20260504033454 13 0 0.0 0.0 0.00 0.00 0.00 56 1007.0
20260504032953 13 0 0.0 0.0 0.00 0.00 0.00 54 1007.1
20260504030953 15 0 0.0 0.0 0.00 0.00 0.00 50 1007.1
20260504030452 15 0 0.0 0.0 0.00 0.00 0.00 50 1007.1
20260504025953 15 0 0.0 0.0 0.00 0.00 0.00 50 1007.1
20260504025453 15 0 0.0 0.0 0.00 0.00 0.00 49 1007.2
20260504024953 16 0 0.0 0.0 0.00 0.00 0.00 48 1007.2
20260504024453 16 145 0.0 3.2 0.00 0.00 0.00 48 1007.2
20260504022953 16 0 0.0 0.0 0.00 0.00 0.00 45 1007.0
20260504022453 16 0 0.0 0.0 0.00 0.00 0.00 45 1007.0
20260504021953 16 0 0.0 0.0 0.00 0.00 0.00 46 1007.0
20260504020953 17 0 0.0 0.0 0.00 0.00 0.00 47 1007.1
20260504020453 17 270 0.0 1.6 0.00 0.00 0.00 45 1007.2
20260504015953 17 270 0.0 1.6 0.00 0.00 0.00 45 1007.2
20260504015453 17 0 0.0 0.0 0.00 0.00 0.00 44 1007.2
20260504014953 17 0 0.0 0.0 0.00 0.00 0.00 44 1007.3
20260504014454 17 0 0.0 0.0 0.00 0.00 0.00 44 1007.3
20260504013953 18 0 0.0 0.0 0.00 0.00 0.00 43 1007.4
20260504013453 18 0 0.0 0.0 0.00 0.00 0.00 42 1007.5
20260504012953 19 0 0.0 0.0 0.00 0.00 0.00 41 1007.4
20260504012453 20 0 0.0 0.0 0.00 0.00 0.00 40 1007.5
20260504011953 20 0 0.0 0.0 0.00 0.00 0.00 38 1007.6
20260504011453 20 0 0.0 0.0 0.00 0.00 0.00 37 1007.6
20260504010953 21 0 0.0 0.0 0.00 0.00 0.00 35 1007.7
20260504010453 21 283 0.0 1.6 0.00 0.00 0.00 34 1007.7
20260504005953 21 281 0.0 1.6 0.00 0.00 0.00 33 1007.9
20260504005453 21 281 1.6 8.0 0.00 0.00 0.00 33 1008.0
20260504004453 21 285 1.6 4.8 0.00 0.00 0.00 32 1008.0
20260504002953 21 283 0.0 4.8 0.00 0.00 0.00 33 1008.2
20260504002452 21 279 0.0 4.8 0.00 0.00 0.00 34 1008.3
20260504001952 21 283 1.6 4.8 0.00 0.00 0.00 33 1008.3
20260504001452 21 281 1.6 6.4 0.00 0.00 0.00 33 1008.3
20260504000953 22 281 1.6 9.7 0.00 0.00 0.00 33 1008.5
20260504000453 22 278 1.6 9.7 0.00 0.00 0.00 32 1008.5
20260503235953 22 281 1.6 4.8 0.00 0.00 0.00 33 1008.5
20260503235452 22 287 1.6 6.4 0.00 0.00 0.00 32 1008.6
20260503234953 22 287 1.6 8.0 0.00 0.00 0.00 32 1008.7
20260503234453 22 288 1.6 8.0 0.00 0.00 0.00 33 1008.7
20260503233953 22 292 0.0 4.8 0.00 0.00 0.00 33 1008.8
20260503233453 22 274 0.0 4.8 0.00 0.00 0.00 33 1008.9
20260503232952 22 258 1.6 4.8 0.00 0.00 0.00 32 1008.8
20260503231952 22 285 1.6 6.4 0.00 0.00 0.00 32 1008.9
20260503231453 22 289 3.2 9.7 0.00 0.00 0.00 33 1009.0
20260503230953 22 283 3.2 9.7 0.00 0.00 0.00 32 1009.0
20260503230453 22 283 1.6 6.4 0.00 0.00 0.00 32 1008.9
20260503225953 22 286 3.2 9.7 0.00 0.00 0.00 32 1009.0
20260503224953 22 288 4.8 11.3 0.00 0.00 0.00 33 1009.1
20260503223952 22 282 3.2 8.0 0.00 0.00 0.00 31 1009.1
20260503222952 22 275 3.2 8.0 0.00 0.00 0.00 32 1009.2
20260503222452 22 262 1.6 8.0 0.00 0.00 0.00 31 1009.2
20260503221954 22 253 0.0 8.0 0.00 0.00 0.00 32 1009.2
20260503221453 22 279 1.6 8.0 0.00 0.00 0.00 31 1009.2
20260503215952 22 276 3.2 9.7 0.00 0.00 0.00 31 1009.5
20260503214453 22 289 1.6 8.0 0.00 0.00 0.00 33 1009.6
20260503213953 22 290 1.6 6.4 0.00 0.00 0.00 31 1009.7
20260503213452 22 286 3.2 8.0 0.00 0.00 0.00 32 1009.7
20260503212952 22 281 1.6 8.0 0.00 0.00 0.00 31 1009.8
20260503212453 22 272 1.6 6.4 0.00 0.00 0.00 31 1009.7
20260503211953 22 278 3.2 8.0 0.00 0.00 0.00 33 1010.0
20260503211452 22 280 3.2 8.0 0.00 0.00 0.00 31 1010.0
20260503210952 22 281 1.6 8.0 0.00 0.00 0.00 32 1010.1
20260503210452 22 289 1.6 6.4 0.00 0.00 0.00 31 1010.2
20260503205453 22 301 3.2 8.0 0.00 0.00 0.00 30 1010.3
20260503204953 22 293 1.6 8.0 0.00 0.00 0.00 32 1010.4
20260503204452 22 299 1.6 6.4 0.00 0.00 0.00 32 1010.5
20260503203952 22 289 3.2 6.4 0.00 0.00 0.00 33 1010.6
20260503203452 22 282 4.8 9.7 0.00 0.00 0.00 34 1010.7
20260503202953 22 289 3.2 9.7 0.00 0.00 0.00 32 1010.8
20260503202453 22 302 1.6 8.0 0.00 0.00 0.00 31 1010.8
20260503201953 22 318 1.6 8.0 0.00 0.00 0.00 32 1010.9
20260503201452 22 305 1.6 6.4 0.00 0.00 0.00 31 1010.9
20260503200952 22 301 1.6 6.4 0.00 0.00 0.00 31 1011.0
20260503200452 22 292 3.2 9.7 0.00 0.00 0.00 30 1011.1
20260503195953 22 287 1.6 9.7 0.00 0.00 0.00 31 1011.2
20260503195453 22 340 1.6 8.0 0.00 0.00 0.00 31 1011.2
20260503194952 22 295 1.6 9.7 0.00 0.00 0.00 31 1011.2
20260503194452 22 295 3.2 9.7 0.00 0.00 0.00 31 1011.2
20260503193952 22 307 1.6 6.4 0.00 0.00 0.00 31 1011.3
20260503193453 22 238 0.0 4.8 0.00 0.00 0.00 33 1011.1
20260503192452 22 280 1.6 8.0 0.00 0.00 0.00 31 1011.4
20260503191952 22 319 0.0 3.2 0.00 0.00 0.00 32 1011.5
20260503190953 21 302 3.2 9.7 0.00 0.00 0.00 34 1011.6
20260503190452 22 309 1.6 6.4 0.00 0.00 0.00 33 1011.6
20260503185952 22 310 0.0 6.4 0.00 0.00 0.00 34 1011.7
20260503185452 21 319 1.6 6.4 0.00 0.00 0.00 33 1011.7
20260503184952 21 334 1.6 6.4 0.00 0.00 0.00 34 1011.8
20260503184453 21 323 1.6 8.0 0.00 0.00 0.00 34 1011.9
20260503183452 21 300 3.2 11.3 0.00 0.00 0.00 34 1011.9
20260503182953 21 317 1.6 6.4 0.00 0.00 0.00 33 1012.0
20260503182452 21 300 1.6 11.3 0.00 0.00 0.00 35 1012.1
20260503181952 21 295 1.6 11.3 0.00 0.00 0.00 35 1012.1
20260503181452 21 330 0.0 4.8 0.00 0.00 0.00 36 1012.2
20260503180952 21 16 0.0 4.8 0.00 0.00 0.00 35 1012.2
20260503180452 21 314 0.0 4.8 0.00 0.00 0.00 34 1012.4
20260503175953 21 298 1.6 6.4 0.00 0.00 0.00 35 1012.5
20260503175452 20 290 1.6 6.4 0.00 0.00 0.00 36 1012.6